Погода Закаталы

Погода Закаталы : погода сейчас, прогноз погоды и архив. Всё, что Вы хотите узнать о погоде Закаталы!

Поиск расширенной информации на нашем сайте:

Другие новости

Новости СМИ2

Главная страница сайта

Новости сайта

02.10.2013

Напоминаем, что на нашем новом сайте вы можете получить высокодетализированные прогнозы погоды по пунктам России, СНГ и мира (включающие важные для авиации метеовеличины, такие как направление и скорость ветра, видимость, явления погоды, количество и форма облачности, нижняя и верхняя граница облачности), а также ознакомиться с разнообразными материалами по авиационной метеорологии и подборкой полезных ссылок на эту тему.

Сайт Метеоцентр.Азия посвящён разработке технологий оптимизации авиаметеорологического обслуживания, включая проектирование и перспективное создание нескольких автоматизированных авиаметеорологических систем:
- система выпуска высокодетальных прогностических карт явлений погоды для нижнего воздушного пространства по России и ближнему зарубежью;
- система верификации прогнозов TAF (выпускаемых синоптиками официальных АМСГ РФ и ближнего зарубежья) и AUTOTAF (выпускаемых сайтом Метеоцентр.Азия) - выявление ошибок, онлайн-сопоставление с фактической погодой METAR, автоматическое внесение коррективов в прогнозы при резком отклонении фактической погоды от прогноза, подсчёт оправдываемости прогнозов по элементам и в целом;
- система обработки, анализа и отображения авиаметеорологической информации для применения провайдерами метеорологической информации.


Погода Закаталы - сегодня

Время (UTC), дата Ветер
(°,м/с) 
Видим.   Явления Облачность Т
(°С)
Тd
(°С)
f(%) Тe
(°С)
Pmin
(гПа)
dP
(гПа)
Po
(мм)
O2
(г/м3)
Тmin Tmax R s Состояние
почвы
03 23.04.17 050 (СВ) 20000 м    3/0 средняя 
[Ac und]
+7.9 +4.3 78 +8  1024.8  724  283           
09 23.04.17 230 (ЮЗ) 20000 м    4/0 средняя, верхняя 
[Ac und|Ci sp]
+15.8 +6.3 53 +17  1029.8  -3.5  722  274           
12 23.04.17 200 (Ю) 20000 м    9/0 средняя 
[Ac und]
+16.9 +7.3 53 +18  1015.1  -4.3  719  272           
15 23.04.17 020 (С) 20000 м    10/10 1000 м 
[Sc|Ac und]
+15.2 +8.2 63 +16  1011.8  -3.3  716  272           
21 23.04.17 270 (З) 4000 м    9/9 1000 м средняя 
[Sc|Ac und]
+14.5 +8.5 67 +15  1012.1  717  273           
00 24.04.17 050 (СВ) 20000 м    ясно 
+11.8 +7.4 74 +12  1011.7  -0.9  716  275           
09 24.04.17 320 (СЗ) 20000 м    8/8 1000 м средняя 
[Sc|Ac und]
+14.3 +6.7 60 +15  1013.2  -0.4  717  273           
12 24.04.17 270 (З) 20000 м  слаб. дождь{гроза}  10/10 1000 м 
[Cu med, cong]
+15.3 +7.7 60 +16  1015  719  273           
18 24.04.17 020 (С) 4000 м    6/6 1000 м средняя 
[Sc|Ac und]
+11.8 +3.8 58 +13  1021.8  4.1  723  279    +16       
21 24.04.17 110 (В) 4000 м    9/9 1000 м средняя 
[Sc|Ac und]
+11.2 +6.2 71 +11  1022.8  0.7  724  279           
00 25.04.17 050 (СВ) 20000 м    4/0 средняя 
[Ac und]
+9.2 +6.4 83 +9  1023.1  724  281           
03 25.04.17 020 (С) 10 км    10/10 600 м 
[Sc]
+9.3 +5.3 76 +9  1024.1  724  281           
06 25.04.17 180 (Ю) 10 км  слаб. дождь  10/10 1000 м 
[Cu med, cong]
+8.7 +4 72 +9  1026  1.9  725  283           
09 25.04.17 050 (СВ) 10 км    10/10 1000 м 
[Sc]
+11.6 +5.6 67 +12  1026.9  1.4  727  280           
12 25.04.17 360 (С) 20000 м    8/8 1000 м средняя 
[Sc|Ac und]
+12.6 +2.5 50 +13  1027.2  0.5  727  280           
18 25.04.17 360 (С) 20000 м    ясно 
+9.2 +3.8 69 +9  1030.4  2.3  729  283    +14.5       
21 25.04.17 020 (С) 20000 м    ясно 
+7 +2.5 73 +7  1032.7  1.7  730  286           
00 26.04.17 090 (В) 4000 м    8/8 600 м 
[Sc]
+7.8 +4.6 80 +8  1034.3  1.7  731  286           
03 26.04.17 070 (В) 10 км    8/8 1000 м 
[Sc]
+7.3 +1.3 66 +7  1036.3  1.8  733  287           
09 26.04.17 200 (Ю) 10 км    9/9 1000 м средняя 
[Sc|Ac und]
+9.4 +4.1 69 +9  1039.1  1.3  735  286           
12 26.04.17 090 (В) 10 км    9/9 1000 м средняя 
[Sc|Ac und]
+11.2 +2.3 54 +11  1038.3  -0.5  735  284           
15 26.04.17 160 (Ю) 10 км    9/9 1000 м 
[Sc]
+10.8 +3 59 +11  1036.8  -1.5  733  284           
21 26.04.17 360 (С) 4000 м    9/9 1000 м средняя 
[Sc|Ac und]
+8.5 +3.6 71 +9  1037.2  733  286           
00 27.04.17 290 (З) 20000 м    ясно 
+5.6 +1.9 77 +5  1037.9  733  289           
03 27.04.17 050 (СВ) 20000 м    1/0 средняя 
[Ac und]
+5.3 +2.3 81 +5  1037  -0.9  733  289           
Время (UTC), дата Ветер
(°,м/с) 
Видим.   Явления Облачность Т
(°С)
Тd
(°С)
f(%) Тe
(°С)
Pmin
(гПа)
dP
(гПа)
Po
(мм)
O2
(г/м3)
Тmin Tmax R s Состояние
почвы

Для получения пояснительной информации подведите курсор к названию столбца.

ПОГОДА Закаталы - архив

Всё, что Вы хотите узнать о погоде Закаталы - удобно и подробно!

Выберите нужную дату (начиная с 1 января 2015* года) и нажмите кнопку "Найти".
Будут отображены архивные сводки погоды по пункту Закаталы, начиная с указанной даты.


Отображать данные в формате CSV (для использования в таблицах Excel)


Внимание! Наш архив погоды предназначен исключительно для личного некоммерческого использования в познавательных целях. Если Вам необходимы официальные справки о состоянии погоды (для производственных, юридических, коммерческих и т.п. целей), обращайтесь в органы Росгидромета.

*Примечание: данная дата относится к архиву по метеостанциям СССР (Россия, СНГ, Балтия).
Архив по метеостанциям Зарубежной Европы и Азии (кроме Китая) хранится 10 дней, по другим регионам земного шара (Китай, Африка, Америка, Австралия, Океания) - 1 день.

Закаталы - район местоположения метеостанции


Название, широта, долгота, высота метеостанции:
Закаталы 41.6°ш. 46.6°д. 490 м над ур. моря [Азербайджан]

Дополнительная информация

В oтличие oт бoльшинства пoгoдных сайтoв мы публикуем пoдрoбную метеoинфoрмацию в детальнoм прoфессиoнальнoм фoрмате.

Характеристики температуры и влажнoсти вoздуха измеряются на высoте 2 м в тени вдали oт зданий и деревьев.
Скoрoсть ветра измеряется на высoте 10 м (на урoвне рoста челoвека скoрoсть ветра ниже в 1.5-2 раза). Если метеoстанция нахoдится в гoрoде или в лесу, тo скoрoсть ветра занижена на 2-4 м/с пo сравнению с oткрытым местoм. Скoрoсть ветра над акватoриями крупных рек и oзёр, а также на вершинах хoлмoв на 2-5 м/с выше, чем в oбычных услoвиях.
Атмoсфернoе давление в разных тoчках местнoсти мoжет значительнo oтличаться oт давления на метеoстанции, в зависимoсти oт услoвий рельефа (при пoдъёме на 10 м давление пoнижается примернo на 1 мм рт.ст.).